Location: Poughquag
(41.6090°N, 73.6820°W)
Time: 04:37:46
(UTC-05:00)

A-11 Canister half - Visible Passes

Search period start: 13 November 2024 00:00
Search period end: 23 November 2024 00:00
Orbit: 1514 x 1686 km, 47.2° (Epoch: 12 November)

Date Brightness Start Highest point End Pass type
(mag) Time Alt. Az. Time Alt. Az. Time Alt. Az.
13 Nov 11.0 01:11:23 17° ENE 01:11:23 17° ENE 01:13:28 10° ENE visible
13 Nov 9.0 03:09:35 80° ENE 03:09:35 80° ENE 03:19:06 10° ENE visible
13 Nov 9.3 05:07:47 24° WNW 05:14:39 64° N 05:24:45 10° E visible
14 Nov 11.2 00:49:46 12° ENE 00:49:46 12° ENE 00:50:20 10° ENE visible
14 Nov 9.4 02:47:58 62° ENE 02:47:58 62° ENE 02:56:03 10° ENE visible
14 Nov 9.3 04:46:10 32° WNW 04:51:32 64° N 05:01:40 10° ENE visible
15 Nov 9.8 02:26:20 47° ENE 02:26:20 47° ENE 02:32:58 10° ENE visible
15 Nov 9.2 04:24:32 41° WNW 04:28:26 65° N 04:38:34 10° ENE visible
16 Nov 10.2 02:04:40 36° ENE 02:04:40 36° ENE 02:09:55 10° ENE visible
16 Nov 9.2 04:02:53 53° WNW 04:05:19 65° N 04:15:29 10° ENE visible
16 Nov 9.3 06:01:11 10° WNW 06:11:24 75° NNE 06:21:33 10° ESE visible
17 Nov 10.5 01:43:00 27° ENE 01:43:00 27° ENE 01:46:51 10° ENE visible
17 Nov 9.1 03:41:12 63° NW 03:42:13 66° N 03:52:23 10° ENE visible
17 Nov 9.3 05:39:23 15° WNW 05:48:19 73° NNE 05:58:28 10° ESE visible
18 Nov 10.9 01:21:19 20° ENE 01:21:19 20° ENE 01:23:47 10° ENE visible
18 Nov 9.2 03:19:30 66° N 03:19:30 66° N 03:29:18 10° ENE visible
18 Nov 9.3 05:17:42 21° WNW 05:25:14 72° NNE 05:35:24 10° E visible
19 Nov 11.1 00:59:37 14° ENE 00:59:37 14° ENE 01:00:43 10° ENE visible
19 Nov 9.4 02:57:49 59° NE 02:57:49 59° NE 03:06:13 10° ENE visible
19 Nov 9.3 04:56:01 28° WNW 05:02:08 70° NNE 05:12:18 10° E visible
20 Nov 9.7 02:36:07 48° NE 02:36:07 48° NE 02:43:07 10° ENE visible
20 Nov 9.2 04:34:19 37° WNW 04:39:02 69° NNE 04:49:12 10° E visible
21 Nov 10.1 02:14:27 37° ENE 02:14:27 37° ENE 02:20:02 10° ENE visible
21 Nov 9.2 04:12:38 47° NW 04:15:56 68° NNE 04:26:07 10° E visible
21 Nov 9.3 06:11:14 10° WNW 06:21:21 72° SW 06:31:22 10° SE visible
22 Nov 10.5 01:52:45 29° ENE 01:52:45 29° ENE 01:56:57 10° ENE visible
22 Nov 9.2 03:50:57 58° NW 03:52:51 67° N 04:03:00 10° E visible
22 Nov 9.2 05:49:09 14° WNW 05:58:19 75° SSW 06:08:23 10° SE visible
